Location: Dreilärchen
(47.9312°N, 8.6113°E)
Time: 22:28:46
(UTC+00:00)

Cosmos 2074 Rocket - Pass Details

Date: 26 May 2022
Orbit: 968 x 985 km, 82.9° (Epoch: 04 July)

Event Time Altitude Azimuth Distance (km) Brightness Sun altitude
Rises 01:19:46 0° 350° (N) 3,701 7.9 -16.1°
Reaches altitude 10° 01:22:18 10° 350° (N) 2,750 7.1 -15.9°
Maximum altitude 01:28:37 83° 264° (W) 1,000 4.0 -15.4°
Enters shadow 01:34:01 15° 177° (S) 2,409 5.6 -14.9°
